Location: Góry Miechowskie
(50.3599°N, 20.1803°E)
Time: 23:20:37
(UTC+00:00)

Transit 2A Rocket - Pass Details

Date: 19 September 2024
Orbit: 582 x 908 km, 66.7° (Epoch: 09 October)

Event Time Altitude Azimuth Distance (km) Brightness Sun altitude
Exits shadow 23:21:46 29° 336° (NNW) 1,610 6.9 -37.6°
Drops below altitude 10° 23:26:32 10° 28° (NNE) 2,580 8.4 -37.4°
Sets 23:29:22 0° 40° (NE) 3,496 9.2 -37.2°
